N2GWK Weather Reports


time (UTC)temp
F
wind
direction
speed
knots
gust
knots
rain 1hr
in
rain 24hr
in
rain mn
in
humidity
%
barometer
mb
20260504014528 54 0.0 0.0 0.00 0.00 0.00 66 1014.8
20260504013526 55 0.0 0.0 0.00 0.00 0.00 64 1014.7
20260504012530 56 0.0 0.0 0.00 0.00 0.00 62 1014.8
20260504011526 57 0.0 0.0 0.00 0.00 0.00 60 1014.8
20260504010538 57 0.0 0.0 0.00 0.00 0.00 60 1014.7
20260504005520 58 0.0 0.0 0.00 0.00 0.00 59 1014.7
20260504004539 59 0.0 0.0 0.00 0.00 0.00 57 1014.7
20260504003516 60 0.0 0.0 0.00 0.00 0.00 55 1014.7
20260504002527 61 0.0 0.0 0.00 0.00 0.00 53 1014.4
20260504001532 61 0.0 0.0 0.00 0.00 0.00 52 1014.6
20260504000536 63 180 1.7 4.3 0.00 0.00 0.00 50 1014.6
20260503235519 64 0.0 0.0 0.00 0.00 0.00 49 1014.5
20260503234524 64 0.0 0.0 0.00 0.00 0.00 49 1014.5
20260503233533 64 184 1.7 3.5 0.00 0.00 0.00 48 1014.7
20260503232519 65 0.0 0.0 0.00 0.00 0.00 47 1015.0
20260503231524 67 0.0 0.0 0.00 0.00 0.00 45 1015.1
20260503230521 68 194 0.9 3.5 0.00 0.00 0.00 44 1015.2
20260503225519 69 258 0.9 3.5 0.00 0.00 0.00 43 1015.4
20260503224521 69 207 0.9 3.5 0.00 0.00 0.00 42 1015.4
20260503223525 68 232 2.6 6.1 0.00 0.00 0.00 42 1015.6
20260503222523 69 270 0.0 5.2 0.00 0.00 0.00 41 1015.9
20260503221527 69 195 1.7 5.2 0.00 0.00 0.00 40 1016.1
20260503220524 70 0.0 0.0 0.00 0.00 0.00 41 1016.2
20260503215521 68 225 0.9 3.5 0.00 0.00 0.00 41 1016.4
20260503214526 67 236 5.2 8.7 0.00 0.00 0.00 41 1016.4
20260503213524 68 236 2.6 9.6 0.00 0.00 0.00 42 1015.9
20260503212527 67 194 0.9 5.2 0.00 0.00 0.00 43 1016.4
20260503211540 68 270 0.9 6.1 0.00 0.00 0.00 41 1016.5
20260503210528 67 203 0.9 3.5 0.00 0.00 0.00 42 1016.5
20260503205525 67 196 0.9 4.3 0.00 0.00 0.00 42 1016.4
20260503204523 67 0.0 2.6 0.00 0.00 0.00 42 1016.8
20260503203541 67 185 1.7 6.1 0.00 0.00 0.00 43 1017.0
20260503202519 67 209 1.7 3.5 0.00 0.00 0.00 43 1017.4
20260503201537 67 231 2.6 5.2 0.00 0.00 0.00 41 1017.6
20260503200519 66 242 1.7 7.8 0.00 0.00 0.00 41 1017.9
20260503195523 66 203 0.9 5.2 0.00 0.00 0.00 42 1018.2
20260503194526 66 259 0.9 4.3 0.00 0.00 0.00 41 1018.3
20260503193524 66 270 0.0 1.7 0.00 0.00 0.00 42 1018.5
20260503192517 66 270 0.0 0.9 0.00 0.00 0.00 43 1018.5
20260503191520 67 203 0.0 2.6 0.00 0.00 0.00 42 1018.8
20260503190544 65 0.0 0.0 0.00 0.00 0.00 43 1018.9
20260503185522 65 251 4.3 8.7 0.00 0.00 0.00 40 1019.0
20260503184520 66 245 3.5 7.0 0.00 0.00 0.00 42 1019.2
20260503183538 65 202 2.6 4.3 0.00 0.00 0.00 42 1019.4
20260503182516 65 204 2.6 5.2 0.00 0.00 0.00 43 1019.4
20260503181532 66 230 3.5 6.1 0.00 0.00 0.00 45 1019.6
20260503180537 64 222 2.6 5.2 0.00 0.00 0.00 44 1019.7
20260503175522 64 226 2.6 4.3 0.00 0.00 0.00 45 1019.8
20260503174528 65 123 1.7 3.5 0.00 0.00 0.00 46 1020.3
20260503173526 63 218 3.5 5.2 0.00 0.00 0.00 45 1020.1
20260503172530 64 178 2.6 4.3 0.00 0.00 0.00 47 1020.5
20260503171533 64 154 2.6 3.5 0.00 0.00 0.00 46 1020.6
20260503170518 64 123 1.7 3.5 0.00 0.00 0.00 45 1020.8
20260503150517 58 213 2.6 4.3 0.00 0.00 0.00 53 1021.4
20260503130529 43 0.0 0.0 0.00 0.00 0.00 89 1021.5
20260503110539 33 0.0 0.0 0.00 0.00 0.00 99 1020.8
20260503081525 35 0.0 0.0 0.00 0.00 0.00 99 1020.3
20260503080528 35 0.0 0.0 0.00 0.00 0.00 99 1020.3
20260503072530 35 0.0 0.0 0.00 0.00 0.00 99 1019.9
20260503071527 36 0.0 0.0 0.00 0.00 0.00 99 1020.0
20260503070546 36 0.0 0.0 0.00 0.00 0.00 99 1019.9
20260503054546 39 0.0 0.0 0.00 0.00 0.00 99 1019.8
20260503053519 39 0.0 0.0 0.00 0.00 0.00 99 1019.8
20260503052520 39 0.0 0.0 0.00 0.00 0.00 99 1019.8
20260503051518 39 0.0 0.0 0.00 0.00 0.00 97 1019.8
20260503050522 40 0.0 0.0 0.00 0.00 0.00 96 1019.7
20260503045526 40 0.0 0.0 0.00 0.00 0.00 97 1019.6
20260503044523 41 0.0 0.0 0.00 0.00 0.00 96 1019.6
20260503043528 41 0.0 0.0 0.00 0.00 0.00 97 1019.6
20260503042531 41 0.0 0.0 0.00 0.00 0.00 97 1019.5
20260503041528 42 0.0 0.0 0.00 0.00 0.00 97 1019.7
20260503040533 42 0.0 0.0 0.00 0.00 0.00 99 1019.8
20260503035518 42 0.0 0.0 0.00 0.00 0.00 99 1019.8
20260503034522 43 0.0 0.0 0.00 0.00 0.00 99 1019.8
20260503033519 43 0.0 0.0 0.00 0.00 0.00 99 1019.8
20260503032518 43 158 0.0 0.9 0.00 0.00 0.00 99 1019.5
20260503031533 43 0.0 0.0 0.00 0.00 0.00 98 1019.5
20260503030551 44 0.0 0.0 0.00 0.00 0.00 97 1019.5
20260503025530 44 0.0 0.0 0.00 0.00 0.00 95 1019.4
20260503024528 44 0.0 0.0 0.00 0.00 0.00 95 1019.3
20260503023546 45 0.0 0.0 0.00 0.00 0.00 95 1019.2
20260503022523 45 0.0 0.0 0.00 0.00 0.00 94 1018.8
20260503021520 0 0.0 0.0 0.00 0.00 0.00 1018.7
20260503020538 0 0.0 0.0 0.00 0.00 0.00 1018.6
20260503015534 0 0.0 0.0 0.00 0.00 0.00 1018.4